Miscellaneous Local Product
Issued by NWS North Platte, NE

Home | Current Version | Previous Version | Text Only | Print | Product List | Glossary On
Versions: 1 2 3 4 5 6 7 8 9 10 11 12 13 14 15 16 17 18 19 20 21 22 23 24 25 26 27 28 29 30 31 32 33 34 35 36 37 38 39 40 41 42 43 44 45 46 47 48 49 50
000
AXUS43 KLBF 252210
MISLBF


WESTERN AND NORTH CENTRAL NEBRASKA HOURLY WEATHER ROUNDUP
NATIONAL WEATHER SERVICE NORTH PLATTE NE
500 PM CDT SAT OCT 25 2014

***STATIONS NOT REPORTING VARIABLES SUCH AS SKY/WEATHER OR
PRESSURE ARE PROVIDED BY THE NEBRASKA DEPARTMENT OF
ROADS...RAWS...AND APRS NETWORKS...AND ARE NOT UNDER
NATIONAL WEATHER SERVICE QUALITY CONTROL***

...OBSERVATIONS IN AND NEAR THE EASTERN PANHANDLE OF NEBRASKA...

CITY           SKY/WX    TMP DP  RH WIND       PRES   REMARKS
PINE RIDGE     SUNNY     72  39  30 SE10      30.01F
CHADRON        SUNNY     73  40  30 E8        29.99F
ALLIANCE       SUNNY     76  36  23 E6        30.02F
SIDNEY         SUNNY     77  38  24 SE8       30.06S
WHITECLAY        N/A     72  39  29 E8          N/A
RUSHVILLE        N/A     76  32  20 SE13        N/A
CRESCENT LAKE    N/A     79  31  17 SE5         N/A
LISCO            N/A     79  27  14 E10         N/A
BIG SPRINGS      N/A     77  38  24 SE5         N/A
LEWELLEN         N/A     84  32  15 E5          N/A
$$

...OBSERVATIONS IN NORTH CENTRAL NEBRASKA...

CITY           SKY/WX    TMP DP  RH WIND       PRES   REMARKS
VALENTINE      SUNNY     71  31  22 SE13      30.04F
THEDFORD       SUNNY     74  41  30 E9        30.04F
AINSWORTH      SUNNY     68  33  26 E9        30.06F
O`NEILL        SUNNY     69  36  29 E8        30.07F
ORD            SUNNY     71  40  32 E8        30.04F
BROKEN BOW     SUNNY     73  45  36 E12G32    30.04F
BROWNLEE         N/A     73  34  23 E10         N/A
SPRINGVIEW       N/A     68  36  30 E8G15       N/A
BREWSTER         N/A     75  41  29 SE9         N/A
ROSE             N/A     74  44  33 E7          N/A
NEWPORT          N/A     69  35  28 E10         N/A
SARGENT          N/A     70  42  35 E6          N/A
COMSTOCK         N/A     77  44  30 E7          N/A
CHAMBERS         N/A     68  38  33 E3G12       N/A
EWING            N/A     70  40  33 E5          N/A
$$

...OBSERVATIONS IN SOUTHWEST NEBRASKA AND FAR NORTHEAST COLORADO...

CITY           SKY/WX    TMP DP  RH WIND       PRES   REMARKS
WRAY           FAIR      82  31  15 E13       30.02F
HOLYOKE        FAIR      81  32  17 SE7       30.04S
IMPERIAL       SUNNY     80  37  21 SE15      30.01F
OGALLALA       SUNNY     80  39  23 SE6       30.01F
NORTH PLATTE   SUNNY     75  47  36 E15       30.01F
MCCOOK         SUNNY     83  45  26 E10       29.99F
LEXINGTON      SUNNY     77  47  34 E10       30.02F
PAXTON           N/A     77  45  31 CALM        N/A
SUTHERLAND       N/A     82  45  27 E10         N/A
BRADY            N/A     75  47  37 NE6         N/A
GOTHENBURG       N/A     75  43  31 SE8         N/A
CALLAWAY         N/A     76  48  36 E9          N/A
$$

...SOME WEATHER OBSERVATIONS FROM AROUND THE REGION...

CITY           SKY/WX    TMP DP  RH WIND       PRES   REMARKS
DENVER         SUNNY     79  18  10 SE13      30.09F
LARAMIE        SUNNY     71  14  11 SW18G25   30.17F
CHEYENNE       SUNNY     73  19  13 S16       30.14F
SCOTTSBLUFF    SUNNY     77  36  22 E14       30.01F
RAPID CITY     SUNNY     65  37  35 S17       30.01F
PIERRE         SUNNY     68  29  23 E10       30.04F
WINNER         FAIR      70  29  21 SE9       30.05F
SIOUX FALLS    SUNNY     66  41  40 NE5       30.09S
OMAHA          SUNNY     75  39  27 NE3       30.05F
GRAND ISLAND   SUNNY     74  42  31 E12       30.05F
KANSAS CITY    SUNNY     78  57  48 SE6       30.02F
WICHITA        SUNNY     89  57  33 S12       29.99F
HAYS           SUNNY     88  48  25 S12       29.99S
LIBERAL        SUNNY     90  43  19 S14G21    30.02F
GOODLAND       SUNNY     84  40  21 S13       30.02F
$$



USA.gov is the U.S. government's official web portal to all federal, state and local government web resources and services.